START_TIME,STEP,MOV.,AL01,t_acc.,AL02,t_acc.,E37,t_acc.,H21,t_acc.
1979-08-03 21:00:33.020 ,0,0,0.,24.0,0.,24.0,0.,24.0,0.,24.0
1979-08-03 21:00:57.020 ,0,1,0.,24.0,0.,24.0,0.,24.0,0.,24.0
1979-08-03 21:01:21.010 ,0,0,0.,24.0,0.,24.0,0.,24.0,0.,24.0
1979-08-03 21:01:45.010 ,1,1,0.,24.0,0.,24.0,0.,24.0,0.,24.0
1979-08-03 21:02:09.010 ,1,0,0.,24.0,0.,24.0,2.,24.0,0.,24.0
1979-08-03 21:02:33.010 ,2,1,1.,24.0,0.,24.0,0.,24.0,0.,24.0
1979-08-03 21:02:57.010 ,2,0,0.,24.0,0.,24.0,0.,24.0,0.,24.0
1979-08-03 21:03:21.010 ,3,1,0.,24.0,0.,24.0,1.,24.0,0.,24.0
1979-08-03 21:03:45.010 ,3,0,0.,24.0,0.,24.0,0.,24.0,0.,24.0
1979-08-03 21:04:09.010 ,4,1,0.,24.0,0.,24.0,0.,24.0,0.,24.0
1979-08-03 21:04:33.010 ,4,0,0.,24.0,0.,24.0,0.,24.0,0.,24.0
1979-08-03 21:04:57.010 ,5,1,0.,24.0,0.,24.0,1.,24.0,0.,24.0
1979-08-03 21:05:21.010 ,5,0,0.,24.0,0.,24.0,0.,24.0,0.,24.0
1979-08-03 21:05:45.010 ,6,1,0.,24.0,0.,24.0,0.,24.0,0.,24.0
1979-08-03 21:06:09.010 ,6,0,0.,24.0,0.,24.0,0.,24.0,0.,24.0
1979-08-03 21:06:33.010 ,7,0,3.,24.0,0.,24.0,1.,24.0,0.,24.0
1979-08-03 21:06:57.010 ,7,0,19.,24.0,0.,24.0,1.,24.0,0.,24.0
1979-08-03 21:07:21.010 ,5,1,14.,24.0,0.,24.0,0.,24.0,0.,24.0
1979-08-03 21:07:45.010 ,1,1,0.,24.0,0.,24.0,1.,24.0,0.,24.0
1979-08-03 21:08:09.010 ,2,1,0.,24.0,0.,24.0,0.,24.0,0.,24.0
1979-08-03 21:08:33.010 ,6,1,0.,24.0,0.,24.0,0.,24.0,0.,24.0
1979-08-03 21:08:57.010 ,5,1,18.,24.0,0.,24.0,1.,24.0,0.,24.0
1979-08-03 21:09:21.010 ,1,1,0.,24.0,0.,24.0,1.,24.0,0.,24.0
1979-08-03 21:09:45.010 ,2,1,0.,24.0,0.,24.0,0.,24.0,0.,24.0
1979-08-03 21:10:09.010 ,6,1,0.,24.0,0.,24.0,0.,24.0,0.,24.0
1979-08-03 21:10:33.010 ,5,1,14.,24.0,0.,24.0,0.,24.0,0.,24.0
1979-08-03 21:10:57.010 ,1,1,0.,24.0,1.,24.0,0.,24.0,0.,24.0
1979-08-03 21:11:21.010 ,2,1,0.,24.0,0.,24.0,0.,24.0,0.,24.0
1979-08-03 21:11:45.010 ,6,1,0.,24.0,0.,24.0,0.,24.0,0.,24.0
1979-08-03 21:12:09.010 ,5,1,19.,24.0,0.,24.0,0.,24.0,0.,24.0
1979-08-03 21:12:33.010 ,1,1,0.,24.0,0.,24.0,0.,24.0,0.,24.0
1979-08-03 21:12:57.010 ,2,1,0.,24.0,0.,24.0,1.,24.0,0.,24.0
1979-08-03 21:13:21.010 ,6,1,0.,24.0,1.,24.0,0.,24.0,0.,24.0
1979-08-03 21:13:45.010 ,5,1,12.,24.0,0.,24.0,0.,24.0,0.,24.0
1979-08-03 21:14:09.010 ,1,1,0.,24.0,0.,24.0,0.,24.0,0.,24.0
1979-08-03 21:14:33.010 ,2,1,0.,24.0,0.,24.0,0.,24.0,0.,24.0
1979-08-03 21:14:57.010 ,6,1,0.,24.0,0.,24.0,0.,24.0,0.,24.0
1979-08-03 21:15:21.010 ,5,1,10.,24.0,0.,24.0,0.,24.0,0.,24.0
1979-08-03 21:15:45.010 ,1,1,0.,24.0,0.,24.0,0.,24.0,0.,24.0
1979-08-03 21:16:09.010 ,2,1,0.,24.0,0.,24.0,0.,24.0,0.,24.0
1979-08-03 21:16:33.010 ,6,1,0.,24.0,0.,24.0,0.,24.0,0.,24.0
1979-08-03 21:16:57.010 ,5,1,11.,24.0,0.,24.0,0.,24.0,0.,24.0
1979-08-03 21:17:21.010 ,1,1,0.,24.0,0.,24.0,0.,24.0,0.,24.0
1979-08-03 21:17:45.010 ,0,0,0.,24.0,0.,24.0,0.,24.0,0.,24.0
1979-08-03 21:18:09.010 ,0,0,0.,24.0,0.,24.0,0.,24.0,0.,24.0
1979-08-03 21:18:33.010 ,5,1,10.,24.0,0.,24.0,0.,24.0,0.,24.0
1979-08-03 21:18:57.010 ,5,0,0.,24.0,0.,24.0,2.,24.0,0.,24.0
1979-08-03 21:19:21.010 ,4,1,0.,24.0,0.,24.0,0.,24.0,0.,24.0
1979-08-03 21:19:45.010 ,4,0,0.,24.0,0.,24.0,0.,24.0,0.,24.0
1979-08-03 21:20:09.010 ,3,1,0.,24.0,0.,24.0,0.,24.0,0.,24.0
1979-08-03 21:20:33.010 ,3,0,0.,24.0,0.,24.0,0.,24.0,0.,24.0
1979-08-03 21:20:57.010 ,2,1,0.,24.0,0.,24.0,0.,24.0,0.,24.0
1979-08-03 21:21:21.010 ,2,0,0.,24.0,0.,24.0,0.,24.0,0.,24.0
1979-08-03 21:21:45.010 ,1,1,0.,24.0,0.,24.0,0.,24.0,0.,24.0
1979-08-03 21:22:09.010 ,1,0,0.,24.0,0.,24.0,2.,24.0,0.,24.0
1979-08-03 21:22:33.010 ,0,1,0.,24.0,0.,24.0,0.,24.0,0.,24.0
1979-08-03 21:22:57.010 ,0,0,0.,24.0,0.,24.0,0.,24.0,0.,24.0
1979-08-03 21:23:21.010 ,0,1,0.,24.0,0.,24.0,0.,24.0,0.,24.0
1979-08-03 21:23:45.010 ,0,0,0.,24.0,0.,24.0,0.,24.0,0.,24.0
1979-08-03 21:24:09.010 ,1,1,0.,24.0,1.,24.0,0.,24.0,0.,24.0
1979-08-03 21:24:33.010 ,1,0,0.,24.0,0.,24.0,2.,24.0,0.,24.0
1979-08-03 21:24:57.010 ,2,1,0.,24.0,0.,24.0,0.,24.0,0.,24.0
1979-08-03 21:25:21.010 ,2,0,0.,24.0,0.,24.0,1.,24.0,0.,24.0
1979-08-03 21:25:45.010 ,3,1,0.,24.0,0.,24.0,0.,24.0,0.,24.0
1979-08-03 21:26:09.010 ,3,0,0.,24.0,0.,24.0,1.,24.0,0.,24.0
1979-08-03 21:26:33.010 ,4,1,0.,24.0,1.,24.0,0.,24.0,0.,24.0
1979-08-03 21:26:57.010 ,4,0,0.,24.0,0.,24.0,0.,24.0,0.,24.0
1979-08-03 21:27:21.010 ,5,1,0.,24.0,0.,24.0,0.,24.0,0.,24.0
1979-08-03 21:27:45.010 ,5,0,0.,24.0,0.,24.0,0.,24.0,0.,24.0
1979-08-03 21:28:09.010 ,6,1,0.,24.0,0.,24.0,0.,24.0,0.,24.0
1979-08-03 21:28:33.010 ,6,0,0.,24.0,0.,24.0,0.,24.0,0.,24.0
1979-08-03 21:28:57.010 ,7,1,5.,24.0,0.,24.0,0.,24.0,0.,24.0
1979-08-03 21:29:21.010 ,7,0,29.,24.0,0.,24.0,0.,24.0,0.,24.0
1979-08-03 21:29:45.010 ,7,1,39.,24.0,1.,24.0,0.,24.0,0.,24.0
1979-08-03 21:30:09.010 ,7,0,30.,24.0,0.,24.0,0.,24.0,0.,24.0
1979-08-03 21:30:33.010 ,6,1,20.,24.0,0.,24.0,0.,24.0,0.,24.0
1979-08-03 21:30:57.010 ,6,0,0.,24.0,0.,24.0,0.,24.0,0.,24.0
1979-08-03 21:31:21.010 ,5,1,0.,24.0,0.,24.0,0.,24.0,0.,24.0
1979-08-03 21:31:45.010 ,5,0,0.,24.0,0.,24.0,0.,24.0,0.,24.0
1979-08-03 21:32:09.010 ,4,1,0.,24.0,0.,24.0,1.,24.0,0.,24.0
1979-08-03 21:32:33.010 ,4,0,0.,24.0,0.,24.0,0.,24.0,0.,24.0
1979-08-03 21:32:57.010 ,3,1,0.,24.0,0.,24.0,0.,24.0,0.,24.0
1979-08-03 21:33:21.010 ,3,0,0.,24.0,0.,24.0,0.,24.0,0.,24.0
1979-08-03 21:33:45.010 ,2,1,0.,24.0,0.,24.0,1.,24.0,0.,24.0
1979-08-03 21:34:09.010 ,2,0,0.,24.0,0.,24.0,0.,24.0,0.,24.0
1979-08-03 21:34:33.010 ,1,1,0.,24.0,0.,24.0,0.,24.0,0.,24.0
1979-08-03 21:34:57.010 ,1,0,0.,24.0,0.,24.0,0.,24.0,0.,24.0
1979-08-03 21:35:21.010 ,0,1,0.,24.0,0.,24.0,0.,24.0,0.,24.0
1979-08-03 21:35:45.010 ,0,0,0.,24.0,0.,24.0,0.,24.0,0.,24.0
1979-08-03 21:36:09.010 ,0,1,0.,24.0,0.,24.0,0.,24.0,0.,24.0
1979-08-03 21:36:33.010 ,0,0,0.,24.0,0.,24.0,0.,24.0,0.,24.0
1979-08-03 21:36:57.010 ,1,1,0.,24.0,0.,24.0,0.,24.0,0.,24.0
1979-08-03 21:37:21.010 ,1,0,0.,24.0,0.,24.0,0.,24.0,0.,24.0
1979-08-03 21:37:45.010 ,2,1,0.,24.0,0.,24.0,0.,24.0,0.,24.0
1979-08-03 21:38:09.010 ,2,0,0.,24.0,0.,24.0,0.,24.0,0.,24.0
1979-08-03 21:38:33.010 ,3,1,0.,24.0,0.,24.0,1.,24.0,0.,24.0
1979-08-03 21:38:57.010 ,3,0,0.,24.0,0.,24.0,0.,24.0,0.,24.0
1979-08-03 21:39:21.010 ,4,1,0.,24.0,0.,24.0,0.,24.0,0.,24.0
1979-08-03 21:39:45.010 ,4,0,0.,24.0,0.,24.0,0.,24.0,0.,24.0
1979-08-03 21:40:09.010 ,5,1,0.,24.0,0.,24.0,0.,24.0,0.,24.0
1979-08-03 21:40:33.010 ,5,0,0.,24.0,0.,24.0,0.,24.0,0.,24.0
1979-08-03 21:40:57.010 ,6,1,0.,24.0,0.,24.0,0.,24.0,0.,24.0
1979-08-03 21:41:21.010 ,6,0,0.,24.0,0.,24.0,0.,24.0,0.,24.0
1979-08-03 21:41:45.010 ,7,1,7.,24.0,0.,24.0,1.,24.0,0.,24.0
1979-08-03 21:42:09.010 ,7,0,29.,24.0,0.,24.0,0.,24.0,0.,24.0
1979-08-03 21:42:33.010 ,7,1,35.,24.0,0.,24.0,0.,24.0,0.,24.0
1979-08-03 21:42:57.010 ,7,0,32.,24.0,0.,24.0,1.,24.0,0.,24.0
1979-08-03 21:43:21.010 ,6,1,27.,24.0,0.,24.0,0.,24.0,0.,24.0
1979-08-03 21:43:45.010 ,6,0,0.,24.0,1.,24.0,0.,24.0,0.,24.0
1979-08-03 21:44:09.010 ,5,1,0.,24.0,0.,24.0,0.,24.0,0.,24.0
1979-08-03 21:44:33.010 ,5,0,0.,24.0,0.,24.0,0.,24.0,0.,24.0
1979-08-03 21:44:57.010 ,4,1,0.,24.0,0.,24.0,0.,24.0,0.,24.0
1979-08-03 21:45:21.010 ,4,0,0.,24.0,0.,24.0,0.,24.0,0.,24.0
1979-08-03 21:45:45.010 ,3,1,0.,24.0,0.,24.0,0.,24.0,0.,24.0
1979-08-03 21:46:09.010 ,3,0,0.,24.0,0.,24.0,0.,24.0,0.,24.0
1979-08-03 21:46:33.010 ,2,1,0.,24.0,0.,24.0,0.,24.0,0.,24.0
1979-08-03 21:46:57.010 ,2,0,1.,24.0,0.,24.0,0.,24.0,0.,24.0
1979-08-03 21:47:21.010 ,1,1,1.,24.0,0.,24.0,0.,24.0,0.,24.0
1979-08-03 21:47:45.010 ,1,0,0.,24.0,0.,24.0,0.,24.0,0.,24.0
1979-08-03 21:48:09.010 ,0,1,0.,24.0,0.,24.0,0.,24.0,0.,24.0
1979-08-03 21:48:33.010 ,0,0,0.,24.0,0.,24.0,2.,24.0,0.,24.0
1979-08-03 21:48:57.010 ,0,1,1.,24.0,0.,24.0,0.,24.0,0.,24.0
1979-08-03 21:49:21.010 ,0,0,1.,24.0,0.,24.0,0.,24.0,0.,24.0
1979-08-03 21:49:45.010 ,1,1,0.,24.0,0.,24.0,0.,24.0,0.,24.0
1979-08-03 21:50:09.010 ,1,0,0.,24.0,0.,24.0,1.,24.0,0.,24.0
1979-08-03 21:50:33.010 ,2,1,0.,24.0,0.,24.0,0.,24.0,0.,24.0
1979-08-03 21:50:57.010 ,2,0,0.,24.0,0.,24.0,0.,24.0,0.,24.0
1979-08-03 21:51:21.010 ,3,1,0.,24.0,0.,24.0,0.,24.0,0.,24.0
1979-08-03 21:51:45.010 ,3,0,0.,24.0,0.,24.0,0.,24.0,0.,24.0
1979-08-03 21:52:09.010 ,4,1,0.,24.0,0.,24.0,1.,24.0,0.,24.0
1979-08-03 21:52:33.010 ,4,0,0.,24.0,0.,24.0,1.,24.0,0.,24.0
1979-08-03 21:52:57.010 ,5,1,0.,24.0,0.,24.0,0.,24.0,0.,24.0
1979-08-03 21:53:21.010 ,5,0,0.,24.0,0.,24.0,0.,24.0,0.,24.0
1979-08-03 21:53:45.010 ,6,1,0.,24.0,0.,24.0,0.,24.0,0.,24.0
1979-08-03 21:54:09.010 ,6,0,0.,24.0,0.,24.0,0.,24.0,0.,24.0
1979-08-03 21:54:33.010 ,7,0,5.,24.0,0.,24.0,1.,24.0,0.,24.0
1979-08-03 21:54:57.010 ,7,0,23.,24.0,0.,24.0,0.,24.0,0.,24.0
1979-08-03 21:55:21.010 ,5,1,18.,24.0,0.,24.0,1.,24.0,0.,24.0
1979-08-03 21:55:45.010 ,1,1,0.,24.0,0.,24.0,0.,24.0,0.,24.0
1979-08-03 21:56:09.010 ,2,1,0.,24.0,1.,24.0,1.,24.0,0.,24.0
1979-08-03 21:56:33.010 ,6,1,0.,24.0,0.,24.0,0.,24.0,0.,24.0
1979-08-03 21:56:57.010 ,5,1,11.,24.0,0.,24.0,0.,24.0,0.,24.0
1979-08-03 21:57:21.010 ,1,1,0.,24.0,0.,24.0,0.,24.0,0.,24.0
1979-08-03 21:57:45.010 ,2,1,0.,24.0,0.,24.0,0.,24.0,0.,24.0
1979-08-03 21:58:09.010 ,6,1,0.,24.0,0.,24.0,0.,24.0,0.,24.0
1979-08-03 21:58:33.010 ,5,1,17.,24.0,0.,24.0,0.,24.0,0.,24.0
1979-08-03 21:58:57.010 ,1,1,0.,24.0,0.,24.0,0.,24.0,0.,24.0
1979-08-03 21:59:21.010 ,2,1,0.,24.0,0.,24.0,0.,24.0,0.,24.0
1979-08-03 21:59:45.010 ,6,1,0.,24.0,0.,24.0,0.,24.0,0.,24.0
1979-08-03 22:00:09.010 ,5,1,21.,24.0,0.,24.0,0.,24.0,0.,24.0
1979-08-03 22:00:33.010 ,1,1,0.,24.0,0.,24.0,0.,24.0,0.,24.0
1979-08-03 22:00:57.010 ,2,1,0.,24.0,0.,24.0,0.,24.0,0.,24.0
1979-08-03 22:01:21.010 ,6,1,0.,24.0,0.,24.0,0.,24.0,0.,24.0
1979-08-03 22:01:45.010 ,5,1,21.,24.0,0.,24.0,0.,24.0,0.,24.0
1979-08-03 22:02:09.010 ,1,1,2.,24.0,0.,24.0,0.,24.0,0.,24.0
1979-08-03 22:02:33.010 ,2,1,0.,24.0,0.,24.0,0.,24.0,0.,24.0
1979-08-03 22:02:57.010 ,6,1,0.,24.0,0.,24.0,0.,24.0,0.,24.0
1979-08-03 22:03:21.010 ,5,1,25.,24.0,0.,24.0,0.,24.0,0.,24.0
1979-08-03 22:03:45.010 ,1,1,0.,24.0,0.,24.0,0.,24.0,0.,24.0
1979-08-03 22:04:09.010 ,2,1,0.,24.0,0.,24.0,0.,24.0,0.,24.0
1979-08-03 22:04:33.010 ,6,1,1.,24.0,0.,24.0,0.,24.0,0.,24.0
1979-08-03 22:04:57.010 ,5,1,15.,24.0,0.,24.0,1.,24.0,0.,24.0
1979-08-03 22:05:21.010 ,1,1,0.,24.0,0.,24.0,1.,24.0,0.,24.0
1979-08-03 22:05:45.010 ,0,0,0.,24.0,0.,24.0,0.,24.0,0.,24.0
1979-08-03 22:06:09.010 ,0,0,0.,24.0,0.,24.0,0.,24.0,0.,24.0
1979-08-03 22:06:33.010 ,5,1,12.,24.0,0.,24.0,0.,24.0,0.,24.0
1979-08-03 22:06:57.010 ,5,0,0.,24.0,0.,24.0,0.,24.0,0.,24.0
1979-08-03 22:07:21.010 ,4,1,0.,24.0,0.,24.0,0.,24.0,0.,24.0
1979-08-03 22:07:45.010 ,4,0,0.,24.0,0.,24.0,0.,24.0,0.,24.0
1979-08-03 22:08:09.010 ,3,1,1.,24.0,0.,24.0,0.,24.0,0.,24.0
1979-08-03 22:08:33.010 ,3,0,0.,24.0,0.,24.0,0.,24.0,0.,24.0
1979-08-03 22:08:57.010 ,2,1,0.,24.0,0.,24.0,0.,24.0,0.,24.0
1979-08-03 22:09:21.010 ,2,0,0.,24.0,0.,24.0,0.,24.0,0.,24.0
1979-08-03 22:09:45.010 ,1,1,0.,24.0,0.,24.0,2.,24.0,0.,24.0
1979-08-03 22:10:09.010 ,1,0,0.,24.0,0.,24.0,1.,24.0,0.,24.0
1979-08-03 22:10:33.010 ,0,1,0.,24.0,0.,24.0,1.,24.0,0.,24.0
1979-08-03 22:10:57.010 ,0,0,0.,24.0,0.,24.0,0.,24.0,0.,24.0
1979-08-03 22:11:21.010 ,0,1,0.,24.0,0.,24.0,0.,24.0,0.,24.0
1979-08-03 22:11:45.010 ,0,0,0.,24.0,0.,24.0,0.,24.0,0.,24.0
1979-08-03 22:12:09.010 ,1,1,0.,24.0,0.,24.0,1.,24.0,0.,24.0
1979-08-03 22:12:33.010 ,1,0,1.,24.0,0.,24.0,1.,24.0,0.,24.0
1979-08-03 22:12:57.010 ,2,1,0.,24.0,0.,24.0,0.,24.0,0.,24.0
1979-08-03 22:13:21.010 ,2,0,0.,24.0,0.,24.0,0.,24.0,0.,24.0
1979-08-03 22:13:45.010 ,3,1,0.,24.0,0.,24.0,1.,24.0,0.,24.0
1979-08-03 22:14:09.010 ,3,0,0.,24.0,0.,24.0,0.,24.0,0.,24.0
1979-08-03 22:14:33.010 ,4,1,0.,24.0,0.,24.0,0.,24.0,0.,24.0
1979-08-03 22:14:57.010 ,4,0,0.,24.0,0.,24.0,0.,24.0,0.,24.0
1979-08-03 22:15:21.010 ,5,1,0.,24.0,0.,24.0,0.,24.0,0.,24.0
1979-08-03 22:15:45.010 ,5,0,0.,24.0,0.,24.0,0.,24.0,0.,24.0
1979-08-03 22:16:09.010 ,6,1,0.,24.0,0.,24.0,0.,24.0,0.,24.0
1979-08-03 22:16:33.010 ,6,0,0.,24.0,0.,24.0,0.,24.0,0.,24.0
1979-08-03 22:16:57.010 ,7,1,5.,24.0,0.,24.0,1.,24.0,0.,24.0
1979-08-03 22:17:21.010 ,7,0,31.,24.0,0.,24.0,0.,24.0,0.,24.0
1979-08-03 22:17:45.010 ,7,1,28.,24.0,0.,24.0,0.,24.0,0.,24.0
1979-08-03 22:18:09.010 ,7,0,39.,24.0,0.,24.0,0.,24.0,0.,24.0
1979-08-03 22:18:33.010 ,6,1,22.,24.0,1.,24.0,0.,24.0,0.,24.0
1979-08-03 22:18:57.010 ,6,0,0.,24.0,0.,24.0,0.,24.0,0.,24.0
1979-08-03 22:19:21.010 ,5,1,0.,24.0,0.,24.0,0.,24.0,0.,24.0
1979-08-03 22:19:45.010 ,5,0,0.,24.0,0.,24.0,0.,24.0,0.,24.0
1979-08-03 22:20:09.010 ,4,1,0.,24.0,0.,24.0,0.,24.0,0.,24.0
1979-08-03 22:20:33.010 ,4,0,0.,24.0,0.,24.0,0.,24.0,0.,24.0
1979-08-03 22:20:57.010 ,3,1,0.,24.0,0.,24.0,0.,24.0,0.,24.0
1979-08-03 22:21:21.010 ,3,0,0.,24.0,0.,24.0,0.,24.0,0.,24.0
1979-08-03 22:21:45.010 ,2,1,1.,24.0,0.,24.0,0.,24.0,0.,24.0
1979-08-03 22:22:09.010 ,2,0,1.,24.0,0.,24.0,0.,24.0,0.,24.0
1979-08-03 22:22:33.010 ,1,1,0.,24.0,0.,24.0,0.,24.0,0.,24.0
1979-08-03 22:22:57.010 ,1,0,0.,24.0,0.,24.0,0.,24.0,0.,24.0
1979-08-03 22:23:21.010 ,0,1,0.,24.0,0.,24.0,0.,24.0,0.,24.0
1979-08-03 22:23:45.010 ,0,0,0.,24.0,0.,24.0,0.,24.0,0.,24.0
1979-08-03 22:24:09.010 ,0,1,0.,24.0,0.,24.0,0.,24.0,0.,24.0
1979-08-03 22:24:33.010 ,0,0,0.,24.0,0.,24.0,0.,24.0,0.,24.0
1979-08-03 22:24:57.010 ,1,1,0.,24.0,0.,24.0,0.,24.0,0.,24.0
1979-08-03 22:25:21.010 ,1,0,0.,24.0,0.,24.0,1.,24.0,0.,24.0
1979-08-03 22:25:45.010 ,2,1,0.,24.0,0.,24.0,0.,24.0,0.,24.0
1979-08-03 22:26:09.010 ,2,0,0.,24.0,1.,24.0,0.,24.0,0.,24.0
1979-08-03 22:26:33.010 ,3,1,0.,24.0,0.,24.0,0.,24.0,0.,24.0
1979-08-03 22:26:57.010 ,3,0,0.,24.0,0.,24.0,0.,24.0,0.,24.0
1979-08-03 22:27:21.010 ,4,1,0.,24.0,0.,24.0,1.,24.0,0.,24.0
1979-08-03 22:27:45.010 ,4,0,0.,24.0,0.,24.0,0.,24.0,0.,24.0
1979-08-03 22:28:09.010 ,5,1,0.,24.0,1.,24.0,1.,24.0,0.,24.0
1979-08-03 22:28:33.010 ,5,0,0.,24.0,0.,24.0,0.,24.0,0.,24.0
1979-08-03 22:28:57.010 ,6,1,0.,24.0,0.,24.0,0.,24.0,0.,24.0
1979-08-03 22:29:21.010 ,6,0,0.,24.0,0.,24.0,0.,24.0,0.,24.0
1979-08-03 22:29:45.010 ,7,1,2.,24.0,0.,24.0,0.,24.0,0.,24.0
1979-08-03 22:30:09.010 ,7,0,28.,24.0,0.,24.0,0.,24.0,0.,24.0
1979-08-03 22:30:33.010 ,7,1,31.,24.0,0.,24.0,0.,24.0,0.,24.0
1979-08-03 22:30:57.010 ,7,0,30.,24.0,0.,24.0,0.,24.0,0.,24.0
1979-08-03 22:31:21.010 ,6,1,23.,24.0,0.,24.0,1.,24.0,0.,24.0
1979-08-03 22:31:45.010 ,6,0,0.,24.0,0.,24.0,0.,24.0,0.,24.0
1979-08-03 22:32:09.010 ,5,1,0.,24.0,0.,24.0,0.,24.0,0.,24.0
1979-08-03 22:32:33.010 ,5,0,0.,24.0,0.,24.0,1.,24.0,0.,24.0
1979-08-03 22:32:57.010 ,4,1,0.,24.0,0.,24.0,0.,24.0,0.,24.0
1979-08-03 22:33:21.010 ,4,0,0.,24.0,0.,24.0,0.,24.0,0.,24.0
1979-08-03 22:33:45.010 ,3,1,0.,24.0,0.,24.0,0.,24.0,0.,24.0
1979-08-03 22:34:09.010 ,3,0,0.,24.0,0.,24.0,0.,24.0,0.,24.0
1979-08-03 22:34:33.010 ,2,1,0.,24.0,0.,24.0,0.,24.0,0.,24.0
1979-08-03 22:34:57.010 ,2,0,0.,24.0,0.,24.0,0.,24.0,0.,24.0
1979-08-03 22:35:21.010 ,1,1,0.,24.0,0.,24.0,0.,24.0,0.,24.0
1979-08-03 22:35:45.010 ,1,0,0.,24.0,0.,24.0,0.,24.0,0.,24.0
1979-08-03 22:36:09.010 ,0,1,0.,24.0,0.,24.0,0.,24.0,0.,24.0
1979-08-03 22:36:33.010 ,0,0,0.,24.0,0.,24.0,0.,24.0,0.,24.0
1979-08-03 22:36:57.010 ,0,1,0.,24.0,0.,24.0,0.,24.0,0.,24.0
1979-08-03 22:37:21.010 ,0,0,0.,24.0,0.,24.0,0.,24.0,0.,24.0
1979-08-03 22:37:45.010 ,1,1,0.,24.0,0.,24.0,0.,24.0,0.,24.0
1979-08-03 22:38:09.010 ,1,0,0.,24.0,0.,24.0,0.,24.0,0.,24.0
1979-08-03 22:38:33.010 ,2,1,0.,24.0,0.,24.0,0.,24.0,0.,24.0
1979-08-03 22:38:57.010 ,2,0,0.,24.0,0.,24.0,1.,24.0,0.,24.0
1979-08-03 22:39:21.010 ,3,1,0.,24.0,0.,24.0,0.,24.0,0.,24.0
1979-08-03 22:39:45.010 ,3,0,0.,24.0,0.,24.0,0.,24.0,0.,24.0
1979-08-03 22:40:09.010 ,4,1,0.,24.0,0.,24.0,0.,24.0,0.,24.0
1979-08-03 22:40:33.010 ,4,0,0.,24.0,0.,24.0,0.,24.0,0.,24.0
1979-08-03 22:40:57.010 ,5,1,0.,24.0,0.,24.0,0.,24.0,0.,24.0
1979-08-03 22:41:21.010 ,5,0,0.,24.0,0.,24.0,0.,24.0,0.,24.0
1979-08-03 22:41:45.010 ,6,1,0.,24.0,0.,24.0,0.,24.0,0.,24.0
1979-08-03 22:42:09.010 ,6,0,0.,24.0,0.,24.0,0.,24.0,0.,24.0
1979-08-03 22:42:33.010 ,7,0,9.,24.0,0.,24.0,0.,24.0,0.,24.0
1979-08-03 22:42:57.010 ,7,0,33.,24.0,0.,24.0,0.,24.0,0.,24.0
1979-08-03 22:43:21.010 ,5,1,16.,24.0,0.,24.0,0.,24.0,0.,24.0
1979-08-03 22:43:45.010 ,1,1,1.,24.0,0.,24.0,0.,24.0,0.,24.0
1979-08-03 22:44:09.010 ,2,1,0.,24.0,0.,24.0,1.,24.0,0.,24.0
1979-08-03 22:44:33.010 ,6,1,0.,24.0,0.,24.0,0.,24.0,0.,24.0
1979-08-03 22:44:57.010 ,5,1,21.,24.0,0.,24.0,0.,24.0,0.,24.0
1979-08-03 22:45:21.010 ,1,1,0.,24.0,0.,24.0,0.,24.0,0.,24.0
1979-08-03 22:45:45.010 ,2,1,0.,24.0,0.,24.0,0.,24.0,0.,24.0
1979-08-03 22:46:09.010 ,6,1,1.,24.0,0.,24.0,0.,24.0,0.,24.0
1979-08-03 22:46:33.010 ,5,1,11.,24.0,0.,24.0,0.,24.0,0.,24.0
1979-08-03 22:46:57.010 ,1,1,0.,24.0,0.,24.0,0.,24.0,0.,24.0
1979-08-03 22:47:21.010 ,2,1,0.,24.0,0.,24.0,0.,24.0,0.,24.0
1979-08-03 22:47:45.010 ,6,1,0.,24.0,0.,24.0,0.,24.0,0.,24.0
1979-08-03 22:48:09.010 ,5,1,14.,24.0,0.,24.0,0.,24.0,0.,24.0
1979-08-03 22:48:33.010 ,1,1,0.,24.0,0.,24.0,1.,24.0,0.,24.0
1979-08-03 22:48:57.010 ,2,1,0.,24.0,0.,24.0,3.,24.0,0.,24.0
1979-08-03 22:49:21.010 ,6,1,0.,24.0,0.,24.0,0.,24.0,0.,24.0
1979-08-03 22:49:45.010 ,5,1,17.,24.0,0.,24.0,0.,24.0,0.,24.0
1979-08-03 22:50:09.010 ,1,1,0.,24.0,0.,24.0,0.,24.0,0.,24.0
1979-08-03 22:50:33.010 ,2,1,0.,24.0,0.,24.0,0.,24.0,0.,24.0
1979-08-03 22:50:57.010 ,6,1,0.,24.0,0.,24.0,0.,24.0,0.,24.0
1979-08-03 22:51:21.010 ,5,1,9.,24.0,0.,24.0,2.,24.0,0.,24.0
1979-08-03 22:51:45.010 ,1,1,0.,24.0,0.,24.0,0.,24.0,0.,24.0
1979-08-03 22:52:09.010 ,2,1,1.,24.0,0.,24.0,0.,24.0,0.,24.0
1979-08-03 22:52:33.010 ,6,1,0.,24.0,0.,24.0,0.,24.0,0.,24.0
1979-08-03 22:52:57.010 ,5,1,15.,24.0,0.,24.0,0.,24.0,0.,24.0
1979-08-03 22:53:21.010 ,1,1,0.,24.0,1.,24.0,0.,24.0,0.,24.0
1979-08-03 22:53:45.010 ,0,0,0.,24.0,0.,24.0,0.,24.0,0.,24.0
1979-08-03 22:54:09.010 ,0,0,0.,24.0,0.,24.0,1.,24.0,0.,24.0
1979-08-03 22:54:33.010 ,5,1,9.,24.0,0.,24.0,0.,24.0,0.,24.0
1979-08-03 22:54:57.010 ,5,0,1.,24.0,0.,24.0,0.,24.0,0.,24.0
1979-08-03 22:55:21.010 ,4,1,0.,24.0,0.,24.0,0.,24.0,0.,24.0
1979-08-03 22:55:45.010 ,4,0,0.,24.0,0.,24.0,0.,24.0,0.,24.0
1979-08-03 22:56:09.010 ,3,1,0.,24.0,0.,24.0,0.,24.0,0.,24.0
1979-08-03 22:56:33.010 ,3,0,0.,24.0,0.,24.0,1.,24.0,0.,24.0
1979-08-03 22:56:57.010 ,2,1,0.,24.0,0.,24.0,0.,24.0,0.,24.0
1979-08-03 22:57:21.010 ,2,0,0.,24.0,0.,24.0,0.,24.0,0.,24.0
1979-08-03 22:57:45.010 ,1,1,0.,24.0,0.,24.0,0.,24.0,0.,24.0
1979-08-03 22:58:09.010 ,1,0,0.,24.0,0.,24.0,1.,24.0,0.,24.0
1979-08-03 22:58:33.010 ,0,1,0.,24.0,1.,24.0,0.,24.0,0.,24.0
1979-08-03 22:58:57.010 ,0,0,1.,24.0,0.,24.0,1.,24.0,0.,24.0
1979-08-03 22:59:21.010 ,0,1,0.,24.0,0.,24.0,1.,24.0,0.,24.0
1979-08-03 22:59:45.010 ,0,0,0.,24.0,0.,24.0,1.,24.0,0.,24.0
1979-08-03 23:00:09.010 ,1,1,1.,24.0,0.,24.0,1.,24.0,0.,24.0
1979-08-03 23:00:33.010 ,1,0,0.,24.0,0.,24.0,0.,24.0,0.,24.0
1979-08-03 23:00:57.010 ,2,1,0.,24.0,0.,24.0,0.,24.0,0.,24.0
1979-08-03 23:01:21.010 ,2,0,0.,24.0,0.,24.0,0.,24.0,0.,24.0
1979-08-03 23:01:45.010 ,3,1,0.,24.0,0.,24.0,0.,24.0,0.,24.0
1979-08-03 23:02:09.010 ,3,0,0.,24.0,0.,24.0,0.,24.0,0.,24.0
1979-08-03 23:02:33.010 ,4,1,0.,24.0,0.,24.0,0.,24.0,0.,24.0
1979-08-03 23:02:57.010 ,4,0,0.,24.0,0.,24.0,0.,24.0,0.,24.0
1979-08-03 23:03:21.010 ,5,1,0.,24.0,0.,24.0,0.,24.0,0.,24.0
1979-08-03 23:03:45.010 ,5,0,0.,24.0,0.,24.0,0.,24.0,0.,24.0
1979-08-03 23:04:09.010 ,6,1,0.,24.0,0.,24.0,0.,24.0,0.,24.0
1979-08-03 23:04:33.010 ,6,0,0.,24.0,0.,24.0,1.,24.0,0.,24.0
1979-08-03 23:04:57.010 ,7,1,10.,24.0,0.,24.0,0.,24.0,0.,24.0
1979-08-03 23:05:21.010 ,7,0,25.,24.0,0.,24.0,0.,24.0,0.,24.0
1979-08-03 23:05:45.010 ,7,1,27.,24.0,0.,24.0,0.,24.0,0.,24.0
1979-08-03 23:06:09.010 ,7,0,26.,24.0,0.,24.0,1.,24.0,0.,24.0
1979-08-03 23:06:33.010 ,6,1,16.,24.0,0.,24.0,0.,24.0,0.,24.0
1979-08-03 23:06:57.010 ,6,0,0.,24.0,0.,24.0,0.,24.0,0.,24.0
1979-08-03 23:07:21.010 ,5,1,1.,24.0,0.,24.0,1.,24.0,0.,24.0
1979-08-03 23:07:45.010 ,5,0,0.,24.0,0.,24.0,1.,24.0,0.,24.0
1979-08-03 23:08:09.010 ,4,1,0.,24.0,0.,24.0,0.,24.0,0.,24.0
1979-08-03 23:08:33.010 ,4,0,0.,24.0,0.,24.0,0.,24.0,0.,24.0
1979-08-03 23:08:57.010 ,3,1,0.,24.0,0.,24.0,1.,24.0,0.,24.0
1979-08-03 23:09:21.010 ,3,0,0.,24.0,0.,24.0,1.,24.0,0.,24.0
1979-08-03 23:09:45.010 ,2,1,0.,24.0,0.,24.0,0.,24.0,0.,24.0
1979-08-03 23:10:09.010 ,2,0,0.,24.0,0.,24.0,2.,24.0,0.,24.0
1979-08-03 23:10:33.010 ,1,1,0.,24.0,0.,24.0,0.,24.0,0.,24.0
1979-08-03 23:10:57.010 ,1,0,0.,24.0,0.,24.0,1.,24.0,0.,24.0
1979-08-03 23:11:21.010 ,0,1,0.,24.0,0.,24.0,0.,24.0,0.,24.0
1979-08-03 23:11:45.010 ,0,0,0.,24.0,0.,24.0,0.,24.0,0.,24.0
1979-08-03 23:12:09.010 ,0,1,0.,24.0,0.,24.0,0.,24.0,0.,24.0
1979-08-03 23:12:33.010 ,0,0,0.,24.0,0.,24.0,0.,24.0,0.,24.0
1979-08-03 23:12:57.010 ,1,1,0.,24.0,0.,24.0,1.,24.0,0.,24.0
1979-08-03 23:13:21.010 ,1,0,0.,24.0,0.,24.0,0.,24.0,0.,24.0
1979-08-03 23:13:45.010 ,2,1,0.,24.0,0.,24.0,0.,24.0,0.,24.0
1979-08-03 23:14:09.010 ,2,0,0.,24.0,0.,24.0,0.,24.0,0.,24.0
1979-08-03 23:14:33.010 ,3,1,0.,24.0,0.,24.0,0.,24.0,0.,24.0
1979-08-03 23:14:57.010 ,3,0,1.,24.0,0.,24.0,0.,24.0,0.,24.0
1979-08-03 23:15:21.010 ,4,1,0.,24.0,0.,24.0,0.,24.0,0.,24.0
1979-08-03 23:15:45.010 ,4,0,1.,24.0,0.,24.0,0.,24.0,0.,24.0
1979-08-03 23:16:09.010 ,5,1,0.,24.0,0.,24.0,1.,24.0,0.,24.0
1979-08-03 23:16:33.010 ,5,0,0.,24.0,0.,24.0,1.,24.0,0.,24.0
1979-08-03 23:16:57.010 ,6,1,0.,24.0,0.,24.0,0.,24.0,0.,24.0
1979-08-03 23:17:21.010 ,6,0,1.,24.0,0.,24.0,0.,24.0,0.,24.0
1979-08-03 23:17:45.010 ,7,1,12.,24.0,0.,24.0,1.,24.0,0.,24.0
1979-08-03 23:18:09.010 ,7,0,31.,24.0,0.,24.0,0.,24.0,0.,24.0
1979-08-03 23:18:33.010 ,7,1,29.,24.0,0.,24.0,0.,24.0,0.,24.0
1979-08-03 23:18:57.010 ,7,0,29.,24.0,0.,24.0,1.,24.0,0.,24.0
1979-08-03 23:19:21.010 ,6,1,22.,24.0,0.,24.0,1.,24.0,0.,24.0
1979-08-03 23:19:45.010 ,6,0,0.,24.0,0.,24.0,0.,24.0,0.,24.0
1979-08-03 23:20:09.010 ,5,1,0.,24.0,0.,24.0,0.,24.0,0.,24.0
1979-08-03 23:20:33.010 ,5,0,0.,24.0,0.,24.0,0.,24.0,0.,24.0
1979-08-03 23:20:57.010 ,4,1,0.,24.0,0.,24.0,0.,24.0,0.,24.0
1979-08-03 23:21:21.010 ,4,0,0.,24.0,0.,24.0,3.,24.0,0.,24.0
1979-08-03 23:21:45.010 ,3,1,0.,24.0,0.,24.0,0.,24.0,0.,24.0
1979-08-03 23:22:09.010 ,3,0,0.,24.0,0.,24.0,0.,24.0,0.,24.0
1979-08-03 23:22:33.010 ,2,1,0.,24.0,0.,24.0,1.,24.0,0.,24.0
1979-08-03 23:22:57.010 ,2,0,0.,24.0,0.,24.0,0.,24.0,0.,24.0
1979-08-03 23:23:21.010 ,1,1,0.,24.0,0.,24.0,1.,24.0,0.,24.0
1979-08-03 23:23:45.010 ,1,0,0.,24.0,0.,24.0,1.,24.0,0.,24.0
1979-08-03 23:24:09.010 ,0,1,0.,24.0,0.,24.0,0.,24.0,0.,24.0
1979-08-03 23:24:33.010 ,0,0,0.,24.0,0.,24.0,2.,24.0,0.,24.0
1979-08-03 23:24:57.010 ,0,1,0.,24.0,0.,24.0,0.,24.0,0.,24.0
1979-08-03 23:25:21.010 ,0,0,0.,24.0,0.,24.0,0.,24.0,0.,24.0
1979-08-03 23:25:45.010 ,1,1,0.,24.0,1.,24.0,0.,24.0,0.,24.0
1979-08-03 23:26:09.010 ,1,0,0.,24.0,0.,24.0,0.,24.0,0.,24.0
1979-08-03 23:26:33.010 ,2,1,0.,24.0,0.,24.0,0.,24.0,0.,24.0
1979-08-03 23:26:57.010 ,2,0,0.,24.0,0.,24.0,2.,24.0,0.,24.0
1979-08-03 23:27:21.010 ,3,1,0.,24.0,0.,24.0,1.,24.0,0.,24.0
1979-08-03 23:27:45.010 ,0,0,0.,24.0,0.,24.0,0.,24.0,0.,24.0
1979-08-03 23:28:35.410 ,0,0,0.,24.0,0.,24.0,1.,24.0,0.,24.0
1979-08-03 23:28:57.010 ,5,1,0.,24.0,0.,24.0,1.,24.0,0.,24.0
1979-08-03 23:29:21.010 ,5,0,0.,24.0,0.,24.0,0.,24.0,0.,24.0
1979-08-03 23:29:45.010 ,6,1,0.,24.0,0.,24.0,2.,24.0,0.,24.0
1979-08-03 23:30:09.010 ,6,0,0.,24.0,0.,24.0,1.,24.0,0.,24.0
1979-08-03 23:30:33.010 ,7,0,9.,24.0,0.,24.0,0.,24.0,0.,24.0
1979-08-03 23:30:57.010 ,7,0,23.,24.0,0.,24.0,0.,24.0,0.,24.0
1979-08-03 23:31:21.010 ,5,1,21.,24.0,0.,24.0,0.,24.0,0.,24.0
1979-08-03 23:31:45.010 ,1,1,0.,24.0,0.,24.0,0.,24.0,0.,24.0
1979-08-03 23:32:09.010 ,2,1,0.,24.0,0.,24.0,2.,24.0,0.,24.0
1979-08-03 23:32:33.010 ,6,1,0.,24.0,0.,24.0,2.,24.0,0.,24.0
1979-08-03 23:32:57.010 ,5,1,10.,24.0,0.,24.0,1.,24.0,0.,24.0
1979-08-03 23:33:21.010 ,1,1,0.,24.0,0.,24.0,0.,24.0,0.,24.0
1979-08-03 23:33:45.010 ,2,1,0.,24.0,0.,24.0,1.,24.0,0.,24.0
1979-08-03 23:34:09.010 ,6,1,0.,24.0,0.,24.0,0.,24.0,0.,24.0
1979-08-03 23:34:33.010 ,5,1,11.,24.0,0.,24.0,0.,24.0,0.,24.0